When you browse on this site, cookies collect data to enhance your experience and personalize the content and advertising you see.
Visit our Privacy Policy to learn more. By continuing to use the site, you agree to this use of cookies and data.
EN

Hourly Weather Trikala

Today, 12 August, Wednesday

Time Temperature Precipitation Wind Pressure Humidity
00:00 +26°C° 0 mm 1 mps 751 mmHg 56%
01:00 +26°C° 0 mm 1 mps 751 mmHg 57%
02:00 +26°C° 0 mm 1 mps 751 mmHg 57%
03:00 +25°C° 0 mm 1 mps 751 mmHg 58%
04:00 +25°C° 0 mm 1 mps 750 mmHg 59%
05:00 +27°C° 0 mm 1 mps 751 mmHg 56%
06:00 +28°C° 0 mm 1 mps 751 mmHg 53%
07:00 +30°C° 0 mm 1 mps 751 mmHg 49%
08:00 +31°C° 0 mm 1 mps 751 mmHg 45%
09:00 +33°C° 0 mm 1 mps 751 mmHg 41%
10:00 +34°C° 0 mm 1 mps 751 mmHg 37%
11:00 +35°C° 0 mm 1 mps 751 mmHg 34%
12:00 +36°C° 0 mm 1 mps 751 mmHg 31%
13:00 +37°C° 0 mm 1 mps 751 mmHg 28%
14:00 +36°C° 0 mm 1 mps 750 mmHg 29%
15:00 +36°C° 0 mm 1 mps 750 mmHg 30%
16:00 +36°C° 0 mm 1 mps 750 mmHg 31%
17:00 +34°C° 0 mm 1 mps 750 mmHg 35%
18:00 +32°C° 0 mm 1 mps 750 mmHg 40%
19:00 +30°C° 0 mm 1 mps 750 mmHg 45%
20:00 +29°C° 0 mm 1 mps 751 mmHg 46%
21:00 +29°C° 0 mm 1 mps 751 mmHg 48%
22:00 +28°C° 0 mm 1 mps 751 mmHg 49%
23:00 +28°C° 0 mm 1 mps 751 mmHg 51%

Tomorrow, 13 August, Thursday

Time Temperature Precipitation Wind Pressure Humidity
00:00 +27°C° 0 mm 1 mps 751 mmHg 52%
01:00 +27°C° 0 mm 1 mps 750 mmHg 53%
02:00 +26°C° 0 mm 1 mps 750 mmHg 54%
03:00 +26°C° 0 mm 1 mps 750 mmHg 56%
04:00 +26°C° 0 mm 1 mps 750 mmHg 57%
05:00 +27°C° 0 mm 1 mps 751 mmHg 55%
06:00 +29°C° 0 mm 1 mps 751 mmHg 52%
07:00 +30°C° 0 mm 1 mps 751 mmHg 49%
08:00 +31°C° 0 mm 1 mps 751 mmHg 46%
09:00 +33°C° 0 mm 1 mps 751 mmHg 42%
10:00 +34°C° 0 mm 1 mps 751 mmHg 38%
11:00 +35°C° 0.1 mm 1 mps 751 mmHg 37%
12:00 +36°C° 0.1 mm 1 mps 751 mmHg 35%
13:00 +37°C° 0.1 mm 1 mps 751 mmHg 33%
14:00 +37°C° 0 mm 2 mps 750 mmHg 34%
15:00 +37°C° 0 mm 2 mps 750 mmHg 35%
16:00 +36°C° 0 mm 2 mps 750 mmHg 37%
17:00 +34°C° 0 mm 2 mps 750 mmHg 41%
18:00 +31°C° 0 mm 2 mps 750 mmHg 46%
19:00 +29°C° 0 mm 1 mps 750 mmHg 50%
20:00 +29°C° 0 mm 1 mps 751 mmHg 52%
21:00 +28°C° 0 mm 1 mps 751 mmHg 54%
22:00 +25°C° 0 mm 0 mps 751 mmHg 56%
23:00 +25°C° 0 mm 0 mps 751 mmHg 57%

Day after tomorrow, 14 August, Friday

Time Temperature Precipitation Wind Pressure Humidity
00:00 +25°C° 0 mm 0 mps 751 mmHg 58%
01:00 +24°C° 0 mm 0 mps 751 mmHg 59%
02:00 +24°C° 0 mm 0 mps 751 mmHg 60%
03:00 +23°C° 0 mm 0 mps 750 mmHg 61%
04:00 +23°C° 0 mm 0 mps 750 mmHg 62%
05:00 +24°C° 0 mm 0 mps 751 mmHg 59%
06:00 +28°C° 0 mm 1 mps 751 mmHg 56%
07:00 +29°C° 0 mm 1 mps 751 mmHg 52%
08:00 +30°C° 0 mm 1 mps 751 mmHg 48%
09:00 +32°C° 0 mm 1 mps 751 mmHg 44%
10:00 +34°C° 0 mm 2 mps 751 mmHg 40%
11:00 +35°C° 0 mm 2 mps 750 mmHg 39%
12:00 +36°C° 0 mm 2 mps 750 mmHg 37%
13:00 +36°C° 0 mm 1 mps 750 mmHg 36%
14:00 +37°C° 0 mm 2 mps 750 mmHg 36%
15:00 +37°C° 0 mm 2 mps 749 mmHg 36%
16:00 +37°C° 0 mm 2 mps 749 mmHg 36%
17:00 +35°C° 0 mm 2 mps 749 mmHg 42%
18:00 +31°C° 0 mm 1 mps 749 mmHg 48%
19:00 +29°C° 0 mm 1 mps 749 mmHg 54%
20:00 +28°C° 0 mm 1 mps 749 mmHg 56%
21:00 +27°C° 0 mm 1 mps 750 mmHg 58%
22:00 +25°C° 0 mm 0 mps 750 mmHg 61%
23:00 +24°C° 0 mm 0 mps 750 mmHg 62%

15 August, Saturday

Time Temperature Precipitation Wind Pressure Humidity
00:00 +24°C° 0 mm 0 mps 750 mmHg 63%
01:00 +23°C° 0 mm 0 mps 750 mmHg 64%
02:00 +23°C° 0 mm 0 mps 750 mmHg 65%
03:00 +23°C° 0 mm 0 mps 749 mmHg 66%
04:00 +22°C° 0 mm 0 mps 749 mmHg 67%
05:00 +24°C° 0 mm 0 mps 749 mmHg 63%
06:00 +27°C° 0 mm 1 mps 750 mmHg 59%
07:00 +28°C° 0 mm 1 mps 750 mmHg 55%
08:00 +30°C° 0 mm 1 mps 750 mmHg 50%
09:00 +31°C° 0 mm 2 mps 750 mmHg 45%
10:00 +34°C° 0 mm 2 mps 750 mmHg 41%
11:00 +35°C° 0 mm 2 mps 750 mmHg 39%
12:00 +36°C° 0 mm 3 mps 749 mmHg 36%
13:00 +37°C° 0 mm 3 mps 749 mmHg 34%
14:00 +36°C° 0 mm 3 mps 749 mmHg 35%
15:00 +36°C° 0 mm 4 mps 748 mmHg 36%
16:00 +36°C° 0 mm 4 mps 748 mmHg 37%
17:00 +33°C° 0 mm 3 mps 748 mmHg 42%
18:00 +30°C° 0 mm 2 mps 748 mmHg 47%
19:00 +27°C° 0 mm 1 mps 748 mmHg 53%
20:00 +27°C° 0 mm 1 mps 748 mmHg 55%
21:00 +26°C° 0 mm 1 mps 749 mmHg 56%
22:00 +25°C° 0 mm 1 mps 749 mmHg 58%
23:00 +25°C° 0 mm 1 mps 749 mmHg 59%

16 August, Sunday

Time Temperature Precipitation Wind Pressure Humidity
00:00 +22°C° 0 mm 0 mps 749 mmHg 59%
01:00 +22°C° 0 mm 0 mps 749 mmHg 60%
02:00 +22°C° 0 mm 0 mps 749 mmHg 61%
03:00 +21°C° 0 mm 0 mps 749 mmHg 63%
04:00 +21°C° 0 mm 0 mps 749 mmHg 64%
05:00 +22°C° 0 mm 0 mps 749 mmHg 60%
06:00 +25°C° 0 mm 1 mps 749 mmHg 56%
07:00 +27°C° 0 mm 1 mps 749 mmHg 52%
08:00 +28°C° 0 mm 1 mps 750 mmHg 47%
09:00 +30°C° 0 mm 2 mps 750 mmHg 43%
10:00 +31°C° 0 mm 2 mps 750 mmHg 38%
11:00 +32°C° 0 mm 2 mps 750 mmHg 36%
12:00 +34°C° 0 mm 2 mps 750 mmHg 35%
13:00 +35°C° 0 mm 2 mps 749 mmHg 33%
14:00 +35°C° 0 mm 2 mps 749 mmHg 33%
15:00 +35°C° 0 mm 3 mps 749 mmHg 33%
16:00 +35°C° 0 mm 3 mps 749 mmHg 33%
17:00 +32°C° 0 mm 2 mps 749 mmHg 38%
18:00 +29°C° 0 mm 2 mps 749 mmHg 44%
19:00 +27°C° 0 mm 2 mps 749 mmHg 49%
20:00 +26°C° 0 mm 1 mps 750 mmHg 50%
21:00 +26°C° 0 mm 1 mps 750 mmHg 52%
22:00 +25°C° 0 mm 1 mps 750 mmHg 53%
23:00 +25°C° 0 mm 1 mps 750 mmHg 54%

17 August, Monday

Time Temperature Precipitation Wind Pressure Humidity
00:00 +23°C° 0 mm 0 mps 750 mmHg 54%
01:00 +22°C° 0 mm 0 mps 750 mmHg 55%
02:00 +22°C° 0 mm 0 mps 750 mmHg 57%
03:00 +23°C° 0 mm 1 mps 750 mmHg 60%
04:00 +22°C° 0 mm 1 mps 750 mmHg 63%
05:00 +24°C° 0 mm 1 mps 751 mmHg 61%
06:00 +25°C° 0 mm 1 mps 751 mmHg 59%
07:00 +26°C° 0 mm 1 mps 751 mmHg 57%
08:00 +28°C° 0 mm 1 mps 751 mmHg 53%
09:00 +29°C° 0 mm 1 mps 751 mmHg 49%
10:00 +31°C° 0 mm 2 mps 751 mmHg 44%
11:00 +32°C° 0 mm 2 mps 751 mmHg 42%
12:00 +34°C° 0 mm 2 mps 750 mmHg 39%
13:00 +35°C° 0 mm 2 mps 750 mmHg 36%
14:00 +35°C° 0 mm 2 mps 750 mmHg 36%
15:00 +35°C° 0 mm 2 mps 750 mmHg 36%
16:00 +35°C° 0 mm 2 mps 749 mmHg 36%
17:00 +32°C° 0 mm 2 mps 750 mmHg 42%
18:00 +30°C° 0 mm 2 mps 750 mmHg 49%
19:00 +27°C° 0 mm 1 mps 750 mmHg 56%
20:00 +26°C° 0 mm 1 mps 750 mmHg 58%
21:00 +26°C° 0 mm 1 mps 750 mmHg 61%
22:00 +23°C° 0 mm 0 mps 750 mmHg 63%
23:00 +23°C° 0 mm 0 mps 750 mmHg 64%
Show more